Flag for South Africa Weather past 2 weeks in Cape Town, South Africa

Now
64 °F

Sunny.


Feels Like: 64 °F
Forecast: 53 / 64 °F
Wind: 22 mph from South

Location: Cape Town International Airport

Current Time: Sep 2, 2015 at 3:33:10 PM

Latest Report: Sep 2, 2015 at 3:00 PM


Visibility: 10 mi

Pressure: 30.36 "Hg

Humidity: 49%

Dew point: 45 °F

Location of Cape TownLocation

Historic Weather in Cape Town — Graph

°F

Cape Town temperature yesterday

Maximum temperature yesterday: 63 °F (at 12:00 PM)
Minimum temperature yesterday: 48 °F (at 6:00 AM)
Average temperature yesterday: 56 °F

Past Weeks' High & Low Weather Summary

 TemperatureHumidityPressure
High75 °F (Aug 21, 3:00 PM)100% (Aug 21, 2:00 AM)30.39 "Hg (Aug 21, 2:00 AM)
Low46 °F (Aug 26, 4:00 AM)41% (Aug 21, 3:00 PM)29.89 "Hg (Aug 23, 3:00 PM)
Average58 °F81%30.09 "Hg
* Reported Aug 18 2:00 PM — Sep 2 2:00 PM, Cape Town, Weather by CustomWeather, © 2015

Note: Actual official high and low records may vary slightly from our data, if they occured in-between our weather recording intervals... More about our weather records

Advertising

Cape Town weather history for previous 24 hours

 ConditionsComfort  
Time TempWeatherWind HumidityBarometerVisibility
2:00 PM
Wed, Sep 2
64 °FSunny.22 mph49%30.36 "Hg10 mi
1:00 PM63 °FSunny.18 mph52%30.39 "Hg10 mi
12:00 PM63 °FPassing clouds.17 mph49%30.39 "HgN/A
11:00 AM61 °FPassing clouds.22 mph52%30.39 "HgN/A
10:00 AM59 °FPassing clouds.22 mph55%30.39 "HgN/A
9:00 AM59 °FPassing clouds.20 mph59%30.36 "HgN/A
8:00 AM55 °FPassing clouds.15 mph67%30.36 "HgN/A
7:00 AM52 °FPassing clouds.10 mph72%30.33 "HgN/A
6:00 AM54 °FClear.20 mph67%30.33 "Hg10 mi
5:00 AM52 °FClear.13 mph67%30.30 "Hg10 mi
4:00 AM54 °FClear.13 mph58%30.30 "Hg10 mi
3:00 AM54 °FClear.12 mph54%30.33 "Hg10 mi
2:00 AM50 °FClear.9 mph62%30.33 "Hg10 mi
1:00 AM50 °FClear.10 mph67%30.33 "Hg10 mi
12:00 AM52 °FClear.14 mph62%30.33 "Hg10 mi
11:00 PM
Tue, Sep 1
50 °FClear.9 mph71%30.33 "Hg10 mi
10:00 PM52 °FClear.14 mph62%30.33 "Hg10 mi
9:00 PM54 °FPassing clouds.14 mph54%30.33 "HgN/A
8:00 PM54 °FPassing clouds.15 mph58%30.33 "HgN/A
7:00 PM55 °FPassing clouds.15 mph63%30.30 "HgN/A
6:00 PM57 °FPassing clouds.20 mph59%30.30 "HgN/A
5:00 PM59 °FPassing clouds.20 mph55%30.30 "HgN/A
4:00 PM61 °FPassing clouds.22 mph42%30.27 "HgN/A
3:00 PM63 °FPassing clouds.21 mph45%30.27 "HgN/A
Weather by CustomWeather, © 2015

See weather overviewHow to use our weather pages